N5ZPR Weather Reports


Display with metric or nautical units.
time (UTC)temp
F
wind
direction
speed
MPH
gust
MPH
rain 1hr
in
rain 24hr
in
rain mn
in
humidity
%
barometer
mb
20240529235003 87 175 0.0 2.0 0.00 0.09 0.09 55 1013.5
20240529233004 88 214 2.0 5.0 0.00 0.09 0.09 53 1013.5
20240529232004 87 146 2.0 5.0 0.00 0.09 0.09 52 1013.5
20240529231003 87 110 1.0 3.0 0.00 0.09 0.09 52 1013.5
20240529230004 87 135 1.0 3.0 0.00 0.09 0.09 54 1013.5
20240529225005 88 123 2.0 5.0 0.00 0.09 0.09 52 1013.5
20240529224003 89 145 2.0 5.0 0.00 0.09 0.09 53 1013.4
20240529223004 87 161 2.0 6.0 0.00 0.09 0.09 53 1013.4
20240529221004 87 102 2.0 5.0 0.00 0.09 0.09 55 1013.6
20240529220003 88 142 1.0 3.0 0.00 0.09 0.09 54 1013.6
20240529215003 89 84 2.0 5.0 0.00 0.09 0.09 51 1013.6
20240529214004 90 188 2.0 5.0 0.00 0.09 0.09 53 1013.6
20240529213003 88 126 2.0 5.0 0.00 0.09 0.09 51 1013.6
20240529212003 87 101 2.0 9.0 0.00 0.09 0.09 53 1013.8
20240529211003 88 95 4.0 9.0 0.00 0.09 0.09 52 1013.8
20240529205003 88 115 2.0 6.0 0.00 0.09 0.09 53 1013.8
20240529204004 87 159 2.0 7.0 0.00 0.09 0.09 54 1014.2
20240529203004 87 111 4.0 7.0 0.00 0.09 0.09 53 1014.2
20240529200003 86 42 1.0 7.0 0.00 0.09 0.09 57 1014.9
20240529195003 86 62 2.0 7.0 0.00 0.09 0.09 59 1014.9
20240529194003 87 92 1.0 8.0 0.00 0.09 0.09 57 1014.9
20240529193004 86 169 2.0 8.0 0.00 0.09 0.09 58 1014.9
20240529191003 85 47 1.0 6.0 0.00 0.09 0.09 61 1014.9
20240529190005 84 32 4.0 9.0 0.00 0.09 0.09 61 1014.9
20240529185004 84 35 5.0 7.0 0.00 0.09 0.09 60 1015.0
20240529183004 84 102 2.0 10.0 0.00 0.09 0.09 63 1015.7
20240529181003 83 60 2.0 9.0 0.00 0.09 0.09 65 1015.7
20240529180003 83 104 5.0 12.0 0.00 0.09 0.09 62 1015.7
20240529175004 83 33 6.0 9.0 0.00 0.09 0.09 64 1015.7
20240529173004 82 39 5.0 9.0 0.00 0.09 0.09 68 1015.7
20240529172003 82 30 4.0 10.0 0.00 0.09 0.09 68 1015.8
20240529171003 83 23 5.0 8.0 0.00 0.09 0.09 67 1015.8
20240529165004 81 49 2.0 7.0 0.00 0.09 0.09 67 1016.3
20240529164004 81 40 1.0 6.0 0.00 0.09 0.09 69 1016.3
20240529163004 80 40 4.0 8.0 0.00 0.09 0.09 68 1016.9
20240529162003 80 31 3.0 10.0 0.00 0.09 0.09 68 1016.9
20240529161004 80 21 3.0 8.0 0.00 0.09 0.09 69 1016.9
20240529160003 79 32 5.0 7.0 0.00 0.09 0.09 68 1016.9
20240529155003 79 47 2.0 5.0 0.00 0.09 0.09 71 1016.9
20240529154004 80 63 2.0 6.0 0.00 0.10 0.09 71 1016.8
20240529153004 80 47 2.0 6.0 0.00 0.10 0.09 69 1016.9
20240529152003 80 15 1.0 5.0 0.00 0.11 0.09 70 1016.4
20240529151004 79 288 0.0 3.0 0.00 0.11 0.09 73 1016.4
20240529150003 78 282 1.0 5.0 0.00 0.12 0.09 72 1016.4
20240529145003 78 277 1.0 3.0 0.00 0.13 0.09 74 1016.4
20240529144003 77 286 0.0 5.0 0.00 0.15 0.09 75 1016.8
20240529143003 76 226 1.0 5.0 0.00 0.16 0.09 76 1016.8
20240529142003 76 271 1.0 2.0 0.00 0.18 0.09 79 1016.8
20240529141003 75 271 1.0 3.0 0.00 0.19 0.09 79 1017.1
20240529140004 74 273 0.0 3.0 0.00 0.21 0.09 81 1017.1
20240529135004 73 57 1.0 3.0 0.00 0.22 0.09 83 1017.1
20240529134003 72 36 0.0 3.0 0.00 0.33 0.09 84 1017.2
20240529132005 71 36 1.0 8.0 0.00 0.71 0.09 88 1017.2
20240529131004 70 358 2.0 5.0 0.00 0.71 0.09 90 1017.2
20240529130003 69 15 2.0 5.0 0.00 0.71 0.09 92 1017.2
20240529125004 69 259 0.0 0.0 0.00 0.71 0.09 93 1017.2
20240529124003 68 0 0.0 2.0 0.00 0.71 0.09 93 1017.2
20240529123003 68 273 0.0 2.0 0.00 0.71 0.09 93 1017.2
20240529122004 68 273 0.0 2.0 0.00 0.71 0.09 93 1017.4
20240529121003 68 273 1.0 5.0 0.00 0.72 0.09 93 1017.2
20240529120003 68 267 0.0 0.0 0.00 0.73 0.09 93 1017.2
20240529115004 68 267 0.0 0.0 0.00 0.73 0.09 93 1017.2
20240529114004 68 267 0.0 0.0 0.00 0.73 0.09 92 1015.8
20240529113004 68 267 0.0 1.0 0.00 0.75 0.09 92 1015.8
20240529110004 69 34 0.0 2.0 0.00 0.75 0.09 89 1015.8
20240529105003 70 34 1.0 6.0 0.00 0.75 0.09 87 1012.3
20240529104004 70 7 5.0 12.0 0.01 0.75 0.09 85 1012.3
20240529103004 71 356 3.0 12.0 0.01 0.75 0.09 84 1012.3
20240529102004 68 134 4.0 8.0 0.02 0.75 0.09 91 1012.3
20240529101003 68 132 1.0 5.0 0.02 0.75 0.09 92 1012.3
20240529095004 68 201 4.0 10.0 0.03 0.75 0.09 93 1011.9
20240529094003 69 172 3.0 12.0 0.02 0.74 0.08 93 1013.3
20240529093004 69 137 5.0 9.0 0.02 0.74 0.08 94 1014.4
20240529092003 69 223 3.0 7.0 0.01 0.73 0.07 94 1014.4
20240529090003 69 248 0.0 3.0 0.00 0.72 0.06 93 1014.3
20240529085003 69 140 0.0 2.0 0.00 0.72 0.06 93 1014.3
20240529084004 69 139 1.0 3.0 0.01 0.72 0.06 93 1014.1
20240529083003 69 117 1.0 3.0 0.02 0.72 0.06 93 1014.1
20240529082004 69 96 0.0 6.0 0.03 0.72 0.06 92 1014.1
20240529081004 69 116 2.0 5.0 0.04 0.72 0.06 92 1015.8
20240529080003 70 238 1.0 2.0 0.06 0.72 0.06 92 1015.8
20240529075003 70 240 0.0 0.0 0.06 0.72 0.06 92 1015.8
20240529074003 70 240 0.0 0.0 0.05 0.71 0.05 91 1017.4
20240529073006 70 240 0.0 2.0 0.04 0.70 0.04 90 1017.4
20240529072003 71 240 0.0 2.0 0.03 0.69 0.03 89 1017.4
20240529071004 71 240 0.0 3.0 0.02 0.68 0.02 88 1018.1
20240529070004 71 166 0.0 2.0 0.00 0.66 0.00 87 1018.1
20240529065003 71 166 0.0 5.0 0.00 0.66 0.00 85 1018.1
20240529063003 72 153 1.0 5.0 0.00 0.66 0.00 83 1018.1
20240529062003 72 331 0.0 2.0 0.00 0.66 0.00 83 1018.2
20240529061003 72 355 0.0 0.0 0.00 0.66 0.00 82 1018.2
20240529055004 72 355 1.0 2.0 0.00 0.66 0.00 82 1016.5
20240529054004 72 356 0.0 2.0 0.00 0.66 0.00 81 1016.5
20240529053004 72 0 0.0 2.0 0.00 0.66 0.00 80 1016.5
20240529052003 73 0 2.0 7.0 0.00 0.66 0.00 80 1016.5
20240529051004 73 0 6.0 9.0 0.00 0.66 0.00 80 1016.5
20240529050005 73 0 6.0 10.0 0.00 0.66 0.00 79 1016.5
20240529045004 73 2 6.0 12.0 0.00 0.66 0.66 80 1016.5
20240529043003 72 0 7.0 12.0 0.00 0.66 0.66 81 1016.5
20240529042003 72 0 6.0 9.0 0.00 0.66 0.66 81 1016.5
20240529041005 72 0 3.0 6.0 0.00 0.66 0.66 81 1016.5
20240529040003 72 0 5.0 6.0 0.00 0.66 0.66 81 1016.5
20240529035049 72 0 3.0 6.0 0.00 0.66 0.66 82 1013.9
20240529032418 72 0 1.0 2.0 0.00 0.66 0.66 81 1013.9
20240529030541 72 0 0.0 2.0 0.00 0.66 0.66 80 1013.9